Погода в Знаменском

Россия / Орловская область     53°16′37″N   35°40′41″E
темп.,
°C
ветер,
м/с
пор.,
м/с
влажн.,
%
обл.,
%
осадки,
мм/ч
давл.,
гПа
погр.,
м
28 ноября, вс
вс2800:00+5ю61495100 0.0 1001452
03:00+5юз71186100 0.1 1002697
06:00+3юз48905 0.0 1003184
09:00+1юз499531 0.0 1006250
12:00+3юз478283 0.0 1007356
15:00+3ююз248264 0.0 1008130
18:00+2ю338699 0.0 100833
21:00+2юв41094100 0.0 1008187
29 ноября, пн
пн2900:00+3юв51297100 0.0 1007312
03:00+4юв51194100 0.0 1006294
06:00+3юв4997100 0.0 1004201
09:00+3юв379799 0.0 1003130
12:00+4вюв2898100 0.1 1000237
15:00+5вюв4799100 0.3 997243
18:00+5вюв41099100 0.0 994315
21:00+6в4999100 0.6 989238
30 ноября, вт
вт3000:00+6всв51098100 2.9 981366
03:00+5сз1199100 10.8 97628
06:00+5зюз4999100 2.6 975366
09:00+5юз71097100 10.4 976812
12:00+1зюз132196100 4.8 9811016
15:00+1зюз111889100 7.0 9851011
18:000зюз10168699 0.1 9891123
21:00−1зюз101584100 0.1 9901012
1 декабря, ср
ср100:00−1зюз8138697 0.1 9901083
03:00−2з71175100 0.1 9931085
06:00−3зюз7128893 0.1 993903
09:00−2зюз61084100 0.1 9941091
12:00−2зюз6107874 0.1 9951086
15:00−2з597893 0.2 995939
18:00−3з5108015 0.0 997667
21:00−4з5108347 0.0 999667
2 декабря, чт
чт200:00−5з49865 0.0 1000522
03:00−5юз4990100 0.0 1001383
06:00−4ююз41086100 0.0 1001434
09:00−2ю61495100 0.3 999548
12:00+1ююз71597100 1.4 997749
15:00+1юз71597100 2.0 998646
18:00+2юз71498100 0.1 1000598
21:00+2юз61497100 0.1 1001472